FW5121 Tampa FL US current weather conditions

sailwx.info

Wind from 113 at 4 knots gusting 7

Air temperature 24.4° C
Dewpoint 13.9° C

Last reported at 2020-Feb-24 17:06 UTC.
Time now 2020-Feb-24 17:36 UTC

Location: N 28°04' W 082°47'.
View on Google Maps.

See reports from other nearby stations

  
Tides and Currents Weather Stations Pressure Air Temp Water Temp Dewpoint Dewpoint Depression Visibility Wind Speed Wind Dir Waves Ship Positions
date/time (UTC)wind fromknots sea level pressurealtimeterstation pressurevisibilityair tempwater tempwave heightnotes
2020-Feb-24 17:06 113 4 gusting 7 24.4
2020-Feb-24 17:01 110 4 gusting 10 24.4
2020-Feb-24 16:56 147 4 gusting 11 24.4
2020-Feb-24 16:51 136 4 gusting 10 24.4
2020-Feb-24 16:46 104 4 gusting 6 23.9
2020-Feb-24 16:41 103 4 gusting 7 23.9
2020-Feb-24 16:36 110 4 gusting 8 23.9
2020-Feb-24 16:31 091 4 gusting 6 23.3
2020-Feb-24 16:26 126 4 gusting 8 23.9
2020-Feb-24 16:21 113 4 gusting 7 23.9
2020-Feb-24 16:16 074 3 gusting 10 23.9
2020-Feb-24 16:11 132 2 gusting 5 23.9
2020-Feb-24 16:06 108 3 gusting 8 23.9
2020-Feb-24 16:01 131 4 gusting 7 23.3
2020-Feb-24 15:56 108 4 gusting 13 23.3
2020-Feb-24 15:51 079 4 gusting 6 23.3
2020-Feb-24 15:46 113 4 gusting 7 23.3
2020-Feb-24 15:41 078 4 gusting 6 23.3
2020-Feb-24 15:36 103 4 gusting 7 22.8
2020-Feb-24 15:31 093 5 gusting 7 22.8
2020-Feb-24 15:26 089 4 gusting 7 22.8
2020-Feb-24 15:21 078 2 gusting 13 22.8
2020-Feb-24 15:16 083 3 gusting 12 22.8
2020-Feb-24 15:11 128 4 gusting 6 22.2
2020-Feb-24 15:06 082 3 gusting 8 22.2
2020-Feb-24 15:01 095 2 gusting 8 22.2
2020-Feb-24 14:56 095 3 gusting 8 22.2
2020-Feb-24 14:51 086 4 gusting 6 22.2
2020-Feb-24 14:46 105 3 gusting 6 21.7
2020-Feb-24 14:41 085 2 gusting 7 21.7
2020-Feb-24 14:36 104 2 gusting 5 21.1
2020-Feb-24 14:31 084 2 gusting 6 21.1
2020-Feb-24 14:26 090 2 gusting 7 20.6
2020-Feb-24 14:21 105 2 gusting 6 20.6
2020-Feb-24 14:16 097 3 gusting 5 20.6
2020-Feb-24 14:11 121 4 gusting 5 20.0
2020-Feb-24 14:06 115 3 gusting 7 20.0
2020-Feb-24 14:01 085 2 gusting 10 20.0
2020-Feb-24 13:56 089 2 gusting 6 19.4
2020-Feb-24 13:51 089 2 gusting 6 18.9
2020-Feb-24 13:46 072 2 gusting 6 18.3
2020-Feb-24 13:41 086 1 gusting 5 17.8
2020-Feb-24 13:36 084 1 gusting 5 17.2
2020-Feb-24 13:31 086 1 gusting 4 16.7
2020-Feb-24 13:26 076 1 gusting 4 16.7
2020-Feb-24 13:21 072 1 gusting 4 16.1
2020-Feb-24 13:16 099 1 gusting 5 15.6
2020-Feb-24 13:11 076 1 gusting 4 15.0
2020-Feb-24 13:06 015 0 gusting 2 14.4
2020-Feb-24 13:01 015 14.4
2020-Feb-24 12:56 015 0 gusting 1 13.9
2020-Feb-24 12:51 015 1 gusting 1 13.3
2020-Feb-24 12:46 015 1 gusting 1 13.3
2020-Feb-24 12:41 015 0 gusting 1 13.3
2020-Feb-24 12:36 015 0 gusting 1 12.8
2020-Feb-24 12:31 015 12.8
2020-Feb-24 12:26 015 12.8
2020-Feb-24 12:21 015 12.8
2020-Feb-24 12:16 015 12.8
2020-Feb-24 12:11 015 12.8
2020-Feb-24 12:06 015 12.8
2020-Feb-24 12:01 015 12.8
2020-Feb-24 11:56 015 12.8
2020-Feb-24 11:51 015 12.8
2020-Feb-24 11:46 015 12.8
2020-Feb-24 11:41 015 12.8
2020-Feb-24 11:36 015 12.8
2020-Feb-24 11:31 015 12.8
2020-Feb-24 11:26 015 12.8
2020-Feb-24 11:21 015 13.3
2020-Feb-24 11:16 015 13.3
2020-Feb-24 11:11 015 13.3
2020-Feb-24 11:06 015 13.3
2020-Feb-24 11:01 015 13.3
2020-Feb-24 10:56 015 13.3
2020-Feb-24 10:51 015 13.3
2020-Feb-24 10:46 015 13.3
2020-Feb-24 10:41 015 13.3
2020-Feb-24 10:36 015 13.3
2020-Feb-24 10:31 015 13.3
2020-Feb-24 10:26 015 13.3
2020-Feb-24 10:21 015 13.3
2020-Feb-24 10:16 015 13.9
2020-Feb-24 10:11 015 13.9
2020-Feb-24 10:06 015 13.9
2020-Feb-24 10:01 015 13.9
2020-Feb-24 09:56 015 13.9
2020-Feb-24 09:51 015 13.9
2020-Feb-24 09:46 015 0 13.9
2020-Feb-24 09:41 015 0 13.9
2020-Feb-24 09:36 015 1 gusting 1 13.9
2020-Feb-24 09:31 015 1 gusting 2 13.9
2020-Feb-24 09:26 015 0 gusting 1 13.9
2020-Feb-24 09:21 015 13.9
2020-Feb-24 09:16 015 13.3
2020-Feb-24 09:11 015 13.3
2020-Feb-24 09:06 015 13.3
2020-Feb-24 09:01 015 13.9
2020-Feb-24 08:56 015 13.3
2020-Feb-24 08:51 015 13.9
2020-Feb-24 08:46 015 0 13.9
2020-Feb-24 08:41 015 0 13.9
2020-Feb-24 08:36 015 0 gusting 1 13.9
2020-Feb-24 08:31 015 13.9
2020-Feb-24 08:26 015 13.9
2020-Feb-24 08:21 015 13.9
2020-Feb-24 08:16 015 13.9
2020-Feb-24 08:11 015 13.9
2020-Feb-24 08:06 015 0 gusting 1 13.9
2020-Feb-24 08:01 015 0 13.9
2020-Feb-24 07:56 015 0 gusting 1 13.9
2020-Feb-24 07:51 015 13.9
2020-Feb-24 07:46 015 13.9
2020-Feb-24 07:41 015 13.9
2020-Feb-24 07:36 015 13.9
2020-Feb-24 07:31 015 13.9
2020-Feb-24 07:26 015 13.9
2020-Feb-24 07:21 015 13.9
2020-Feb-24 07:16 015 13.9
2020-Feb-24 07:11 015 13.9
2020-Feb-24 07:06 015 13.9
2020-Feb-24 07:01 015 13.9
2020-Feb-24 06:56 015 13.9
2020-Feb-24 06:51 015 13.9
2020-Feb-24 06:46 015 14.4
2020-Feb-24 06:41 015 14.4
2020-Feb-24 06:36 015 14.4
2020-Feb-24 06:31 015 14.4
2020-Feb-24 06:26 015 14.4
2020-Feb-24 06:21 015 14.4
2020-Feb-24 06:16 015 14.4
2020-Feb-24 06:11 015 14.4
2020-Feb-24 06:06 015 14.4
2020-Feb-24 06:01 015 14.4
2020-Feb-24 05:56 015 14.4
2020-Feb-24 05:51 015 14.4
2020-Feb-24 05:46 015 14.4
2020-Feb-24 05:41 015 14.4
2020-Feb-24 05:36 015 14.4
2020-Feb-24 05:31 015 15.0
2020-Feb-24 05:26 015 15.0
2020-Feb-24 05:21 015 15.0
2020-Feb-24 05:16 015 15.0
2020-Feb-24 05:11 015 15.0
2020-Feb-24 05:06 015 15.0
2020-Feb-24 05:01 015 15.0
2020-Feb-24 04:56 015 15.0
2020-Feb-24 04:51 015 15.6
2020-Feb-24 04:46 015 15.6
2020-Feb-24 04:41 015 15.6
2020-Feb-24 04:36 015 15.6
2020-Feb-24 04:31 015 15.6
2020-Feb-24 04:26 015 15.6
2020-Feb-24 04:21 015 15.6
2020-Feb-24 04:16 015 15.6
2020-Feb-24 04:11 015 15.6
2020-Feb-24 04:06 015 15.6
2020-Feb-24 04:01 015 15.6
2020-Feb-24 03:56 015 15.6
2020-Feb-24 03:51 015 15.6
2020-Feb-24 03:46 015 15.6
2020-Feb-24 03:41 015 16.1
2020-Feb-24 03:36 015 16.1
2020-Feb-24 03:31 015 16.1
2020-Feb-24 03:26 015 16.1
2020-Feb-24 03:21 015 16.1
2020-Feb-24 03:16 015 16.7
2020-Feb-24 03:11 015 16.7
2020-Feb-24 03:06 015 0 gusting 1 16.7
2020-Feb-24 03:01 015 0 16.7
2020-Feb-24 02:56 015 0 gusting 1 16.7
2020-Feb-24 02:51 015 16.7
2020-Feb-24 02:46 015 0 gusting 1 17.2
2020-Feb-24 02:41 015 1 gusting 1 17.2
2020-Feb-24 02:36 015 1 gusting 2 17.2
2020-Feb-24 02:31 357 0 gusting 2 17.2
2020-Feb-24 02:26 135 0 gusting 2 17.2
2020-Feb-24 02:21 352 17.2
2020-Feb-24 02:16 352 0 gusting 1 17.8
2020-Feb-24 02:11 352 0 gusting 1 17.8
2020-Feb-24 02:06 352 0 gusting 1 17.8
2020-Feb-24 02:01 352 0 gusting 2 17.8
2020-Feb-24 01:56 350 1 gusting 4 18.3
2020-Feb-24 01:51 338 1 gusting 4 18.3
2020-Feb-24 01:46 338 2 gusting 4 18.3
2020-Feb-24 01:41 332 2 gusting 6 18.3
2020-Feb-24 01:36 336 2 gusting 6 18.3
2020-Feb-24 01:31 310 1 gusting 6 18.3
2020-Feb-24 01:26 292 1 gusting 4 18.3
2020-Feb-24 01:21 313 1 gusting 4 18.3
2020-Feb-24 01:16 343 1 gusting 4 18.3
2020-Feb-24 01:11 329 1 gusting 4 18.3
2020-Feb-24 01:06 319 2 gusting 4 18.3
2020-Feb-24 01:01 310 2 gusting 5 18.9
2020-Feb-24 00:56 299 2 gusting 6 18.9
2020-Feb-24 00:51 317 2 gusting 6 18.9
2020-Feb-24 00:46 344 2 gusting 6 18.9
2020-Feb-24 00:41 313 1 gusting 4 18.9
2020-Feb-24 00:36 305 1 gusting 6 18.9
2020-Feb-24 00:31 311 1 gusting 6 18.9
2020-Feb-24 00:26 309 2 gusting 5 19.4
2020-Feb-24 00:21 314 2 gusting 4 19.4
2020-Feb-24 00:16 306 2 gusting 6 19.4
2020-Feb-24 00:11 354 2 gusting 5 19.4
2020-Feb-24 00:06 332 2 gusting 5 20.0
2020-Feb-24 00:01 291 2 gusting 6 20.0
2020-Feb-23 23:56 303 2 gusting 6 20.0
2020-Feb-23 23:51 305 4 gusting 7 20.0
2020-Feb-23 23:46 313 4 gusting 6 20.6
2020-Feb-23 23:41 274 4 gusting 6 20.6
2020-Feb-23 23:36 294 4 gusting 8 20.6
2020-Feb-23 23:31 263 4 gusting 7 21.1
2020-Feb-23 23:26 252 4 gusting 6 21.1
2020-Feb-23 23:21 257 5 gusting 6 21.7
2020-Feb-23 23:16 263 4 gusting 10 21.7
2020-Feb-23 23:11 264 4 gusting 8 22.2
2020-Feb-23 23:06 261 2 gusting 6 22.8
2020-Feb-23 23:01 269 23.3
2020-Feb-23 22:56 266 23.3
2020-Feb-23 22:51 266 23.3
2020-Feb-23 22:46 266 23.3
2020-Feb-23 22:41 266 23.3
2020-Feb-23 22:36 266 0 gusting 1 23.3
2020-Feb-23 22:31 266 1 gusting 1 23.3
2020-Feb-23 22:26 266 1 gusting 4 23.9
2020-Feb-23 22:21 302 1 gusting 4 23.9
2020-Feb-23 22:16 308 1 gusting 2 23.9
2020-Feb-23 22:11 256 1 gusting 4 23.9
2020-Feb-23 22:06 251 1 gusting 2 23.9
2020-Feb-23 22:01 258 1 gusting 4 23.9
2020-Feb-23 21:56 250 1 gusting 4 23.9
2020-Feb-23 21:51 245 1 gusting 4 23.9
2020-Feb-23 21:46 249 1 gusting 4 23.3
2020-Feb-23 21:41 245 0 gusting 4 23.3
2020-Feb-23 21:36 150 0 gusting 1 23.3
2020-Feb-23 21:31 150 0 gusting 1 23.3
2020-Feb-23 21:26 150 0 gusting 1 23.3
2020-Feb-23 21:21 150 23.3
2020-Feb-23 21:16 150 0 gusting 4 23.3
2020-Feb-23 21:11 144 1 gusting 0 23.3
2020-Feb-23 21:06 144 1 gusting 4 23.3
2020-Feb-23 21:01 091 1 gusting 4 23.3
2020-Feb-23 20:56 227 1 gusting 4 23.3
2020-Feb-23 20:51 102 1 gusting 4 23.3
2020-Feb-23 20:46 079 1 gusting 4 23.3
2020-Feb-23 20:41 105 1 gusting 4 23.3
2020-Feb-23 20:36 143 1 gusting 2 23.3
2020-Feb-23 20:31 113 1 gusting 2 23.3
2020-Feb-23 20:26 095 1 gusting 2 23.3
2020-Feb-23 20:21 091 1 gusting 2 23.3
2020-Feb-23 20:16 085 1 gusting 5 23.3
2020-Feb-23 20:11 080 1 gusting 5 23.3
2020-Feb-23 20:06 105 1 gusting 4 23.3
2020-Feb-23 20:01 105 1 gusting 6 23.3
2020-Feb-23 19:56 109 2 gusting 4 23.3
2020-Feb-23 19:51 082 2 gusting 4 23.3
2020-Feb-23 19:46 060 2 gusting 5 23.3
2020-Feb-23 19:41 351 1 gusting 7 23.3
2020-Feb-23 19:36 353 1 gusting 4 23.3
2020-Feb-23 19:31 075 1 gusting 2 23.3
2020-Feb-23 19:26 115 2 gusting 4 23.3
2020-Feb-23 19:21 088 2 gusting 5 23.9
2020-Feb-23 19:16 104 2 gusting 4 23.3
2020-Feb-23 19:11 048 4 gusting 8 23.3
2020-Feb-23 19:06 320 3 gusting 5 23.3
2020-Feb-23 19:01 104 1 gusting 7 23.3
2020-Feb-23 18:56 088 1 gusting 4 23.9
2020-Feb-23 18:51 343 1 gusting 6 23.3
2020-Feb-23 18:46 080 1 gusting 6 23.3
2020-Feb-23 18:41 064 1 gusting 4 23.3
2020-Feb-23 18:36 078 1 gusting 2 23.9
2020-Feb-23 18:31 076 1 gusting 5 23.9
2020-Feb-23 18:26 106 2 gusting 5 23.3
2020-Feb-23 18:21 122 2 gusting 6 22.8
2020-Feb-23 18:16 190 2 gusting 5 22.8
2020-Feb-23 18:11 079 2 gusting 5 22.8
2020-Feb-23 18:06 072 2 gusting 5 22.8
2020-Feb-23 18:01 087 2 gusting 4 22.8
2020-Feb-23 17:56 172 2 gusting 5 22.8
2020-Feb-23 17:51 112 1 gusting 6 22.8
2020-Feb-23 17:46 095 1 gusting 4 23.3
2020-Feb-23 17:41 094 1 gusting 4 23.3
2020-Feb-23 17:36 082 2 gusting 6 22.8
2020-Feb-23 17:31 060 2 gusting 4 22.8
2020-Feb-23 17:26 088 2 gusting 6 22.2
2020-Feb-23 17:21 041 4 gusting 6 22.2
2020-Feb-23 17:16 087 4 gusting 6 22.2
2020-Feb-23 17:11 077 4 gusting 7 22.2
2020-Feb-23 17:06 054 4 gusting 6 22.2
2020-Feb-23 17:01 066 4 gusting 7 22.2
2020-Feb-23 16:56 077 3 gusting 8 22.2
2020-Feb-23 16:51 077 2 gusting 6 22.8
2020-Feb-23 16:46 102 2 gusting 5 22.2
2020-Feb-23 16:41 061 2 gusting 7 22.2
2020-Feb-23 16:36 036 2 gusting 4 21.7
2020-Feb-23 16:31 068 4 gusting 6 21.7
2020-Feb-23 16:26 064 3 gusting 6 21.7
2020-Feb-23 16:21 076 2 gusting 6 21.7
2020-Feb-23 16:16 069 2 gusting 8 21.7
2020-Feb-23 16:11 090 1 gusting 6 21.1
2020-Feb-23 16:06 045 2 gusting 5 21.1
2020-Feb-23 16:01 014 2 gusting 5 20.6
2020-Feb-23 15:56 038 2 gusting 5 20.6
2020-Feb-23 15:51 062 1 gusting 6 20.6
2020-Feb-23 15:46 345 1 gusting 6 20.0
2020-Feb-23 15:41 350 1 gusting 5 20.0
2020-Feb-23 15:36 055 1 gusting 6 19.4
2020-Feb-23 15:31 120 1 gusting 5 19.4
2020-Feb-23 15:26 065 1 gusting 4 18.9
2020-Feb-23 15:21 049 1 gusting 5 18.3
2020-Feb-23 15:16 008 1 gusting 4 18.3
2020-Feb-23 15:11 343 1 gusting 6 17.8
2020-Feb-23 15:06 359 2 gusting 6 17.8
2020-Feb-23 15:01 353 2 gusting 6 17.2
2020-Feb-23 14:56 073 2 gusting 5 17.2
2020-Feb-23 14:51 085 1 gusting 6 16.7
2020-Feb-23 14:46 015 1 gusting 6 16.7
2020-Feb-23 14:41 062 1 gusting 5 16.7
2020-Feb-23 14:36 045 1 gusting 4 16.1
2020-Feb-23 14:31 084 1 gusting 4 16.1
2020-Feb-23 14:26 072 1 gusting 4 15.6
2020-Feb-23 14:21 001 1 gusting 4 15.0
2020-Feb-23 14:16 027 1 gusting 5 14.4
2020-Feb-23 14:11 058 1 gusting 4 13.9
2020-Feb-23 14:06 088 2 gusting 2 13.9
2020-Feb-23 14:01 354 4 gusting 5 13.9
2020-Feb-23 13:56 012 2 gusting 6 13.3
2020-Feb-23 13:51 359 1 gusting 6 13.3
2020-Feb-23 13:46 011 1 gusting 6 12.8
2020-Feb-23 13:41 021 1 gusting 5 12.8
2020-Feb-23 13:36 038 1 gusting 6 12.2
2020-Feb-23 13:31 017 1 gusting 6 12.2
2020-Feb-23 13:26 351 1 gusting 5 11.7
2020-Feb-23 13:21 346 1 gusting 4 11.7
2020-Feb-23 13:16 012 1 gusting 5 11.1
2020-Feb-23 13:11 328 1 gusting 4 11.1
2020-Feb-23 13:06 339 1 gusting 6 10.6
2020-Feb-23 13:01 358 1 gusting 4 10.6
2020-Feb-23 12:56 350 1 gusting 6 10.6
2020-Feb-23 12:51 023 1 gusting 5 10.0
2020-Feb-23 12:46 349 1 gusting 4 10.0
2020-Feb-23 12:41 349 1 gusting 4 10.0
2020-Feb-23 12:36 026 0 gusting 4 9.4
2020-Feb-23 12:31 343 9.4
2020-Feb-23 12:26 349 0 gusting 4 9.4
2020-Feb-23 12:21 349 0 gusting 2 9.4
2020-Feb-23 12:16 349 1 gusting 1 9.4
2020-Feb-23 12:11 349 1 gusting 4 9.4
2020-Feb-23 12:06 350 1 gusting 1 9.4
2020-Feb-23 12:01 351 0 gusting 5 9.4
2020-Feb-23 11:56 350 0 gusting 4 9.4
2020-Feb-23 11:51 350 0 gusting 4 10.0
2020-Feb-23 11:46 348 1 gusting 4 10.0
2020-Feb-23 11:41 347 1 gusting 2 10.0
2020-Feb-23 11:36 347 1 gusting 2 10.0
2020-Feb-23 11:31 349 1 gusting 4 10.0
2020-Feb-23 11:26 031 1 gusting 4 10.0
2020-Feb-23 11:21 354 0 gusting 4 10.0
2020-Feb-23 11:16 014 0 gusting 1 10.0
2020-Feb-23 11:11 014 0 gusting 4 10.0
2020-Feb-23 11:06 351 1 gusting 4 10.0
2020-Feb-23 11:01 354 1 gusting 1 10.0
2020-Feb-23 10:56 340 1 gusting 2 10.0
2020-Feb-23 10:51 336 1 gusting 4 10.0
2020-Feb-23 10:46 040 1 gusting 6 10.0
2020-Feb-23 10:41 013 1 gusting 1 10.0
2020-Feb-23 10:36 048 1 gusting 5 10.0
2020-Feb-23 10:31 342 1 gusting 4 10.0
2020-Feb-23 10:26 023 1 gusting 5 10.0
2020-Feb-23 10:21 355 0 gusting 4 10.0
2020-Feb-23 10:16 033 0 gusting 4 10.0
2020-Feb-23 10:11 335 0 gusting 2 10.0
2020-Feb-23 10:06 341 1 gusting 2 10.0
2020-Feb-23 10:01 352 1 gusting 2 10.0
2020-Feb-23 09:56 057 1 gusting 4 10.0
2020-Feb-23 09:51 344 1 gusting 4 10.0
2020-Feb-23 09:46 350 1 gusting 5 10.0
2020-Feb-23 09:41 007 1 gusting 4 10.0
2020-Feb-23 09:36 10.0
2020-Feb-23 09:31 032 1 gusting 5 10.0
2020-Feb-23 09:26 093 1 gusting 4 10.0
2020-Feb-23 09:21 025 1 gusting 2 10.0
2020-Feb-23 09:16 035 1 gusting 2 10.0
2020-Feb-23 09:11 036 1 gusting 5 10.0
2020-Feb-23 09:06 336 2 gusting 4 10.0
2020-Feb-23 09:01 014 2 gusting 5 10.0
2020-Feb-23 08:56 013 2 gusting 6 10.0
2020-Feb-23 08:51 344 1 gusting 5 10.0
2020-Feb-23 08:46 325 1 gusting 4 10.0
2020-Feb-23 08:41 349 1 gusting 6 10.0
2020-Feb-23 08:36 346 1 gusting 4 10.0
2020-Feb-23 08:31 349 1 gusting 4 10.0
2020-Feb-23 08:26 349 1 gusting 4 10.0
2020-Feb-23 08:21 344 1 gusting 4 10.0
2020-Feb-23 08:16 345 1 gusting 4 10.0
2020-Feb-23 08:11 347 0 gusting 4 10.0
2020-Feb-23 08:06 353 0 gusting 2 10.0
2020-Feb-23 08:01 353 10.0
2020-Feb-23 07:56 353 0 gusting 2 10.6
2020-Feb-23 07:51 019 0 gusting 1 10.6
2020-Feb-23 07:46 019 1 gusting 1 10.6
2020-Feb-23 07:41 019 1 gusting 1 10.6
2020-Feb-23 07:36 019 1 gusting 2 10.6
2020-Feb-23 07:31 344 1 gusting 4 10.6
2020-Feb-23 07:26 339 1 gusting 1 10.6
2020-Feb-23 07:21 339 1 gusting 5 10.6
2020-Feb-23 07:16 340 1 gusting 2 10.6
2020-Feb-23 07:11 340 1 gusting 2 10.6
2020-Feb-23 07:06 334 1 gusting 2 10.6
2020-Feb-23 07:01 004 1 gusting 5 10.6
2020-Feb-23 06:56 350 1 gusting 4 10.6
2020-Feb-23 06:51 326 2 gusting 5 10.6
2020-Feb-23 06:46 338 2 gusting 5 10.6
2020-Feb-23 06:41 349 1 gusting 6 11.1
2020-Feb-23 06:36 345 1 gusting 4 11.1
2020-Feb-23 06:31 009 1 gusting 5 11.1
2020-Feb-23 06:26 342 1 gusting 6 11.1
2020-Feb-23 06:21 336 1 gusting 6 11.1
2020-Feb-23 06:16 043 1 gusting 4 11.1
2020-Feb-23 06:11 028 1 gusting 7 11.1
2020-Feb-23 06:06 317 2 gusting 5 11.1
2020-Feb-23 06:01 347 2 gusting 5 11.1
2020-Feb-23 05:56 335 2 gusting 6 11.1
2020-Feb-23 05:51 004 2 gusting 6 11.1
2020-Feb-23 05:46 346 2 gusting 6 11.1
2020-Feb-23 05:41 343 1 gusting 6 11.1
2020-Feb-23 05:36 340 1 gusting 6 11.1
2020-Feb-23 05:31 339 1 gusting 4 11.1
2020-Feb-23 05:26 340 1 gusting 5 11.1
2020-Feb-23 05:21 022 1 gusting 6 11.7
2020-Feb-23 05:16 006 1 gusting 4 11.7
2020-Feb-23 05:11 325 1 gusting 4 11.7
2020-Feb-23 05:06 331 1 gusting 4 11.7
2020-Feb-23 05:01 329 1 gusting 5 11.7
2020-Feb-23 04:56 344 1 gusting 6 11.7
2020-Feb-23 04:51 002 1 gusting 6 11.7
2020-Feb-23 04:46 064 2 gusting 6 11.7
2020-Feb-23 04:41 345 2 gusting 4 11.7
2020-Feb-23 04:36 329 2 gusting 6 11.7
2020-Feb-23 04:31 350 1 gusting 6 12.2
2020-Feb-23 04:26 354 1 gusting 6 12.2
2020-Feb-23 04:21 001 1 gusting 4 12.2
2020-Feb-23 04:16 347 1 gusting 6 12.2
2020-Feb-23 04:11 336 1 gusting 7 12.2
2020-Feb-23 04:06 354 2 gusting 6 12.2
2020-Feb-23 04:01 330 2 gusting 6 12.2
2020-Feb-23 03:56 329 2 gusting 6 12.2
2020-Feb-23 03:51 331 1 gusting 6 12.8
2020-Feb-23 03:46 336 2 gusting 8 12.8
2020-Feb-23 03:41 005 2 gusting 6 12.8
2020-Feb-23 03:36 006 2 gusting 6 12.8
2020-Feb-23 03:31 025 2 gusting 6 12.8
2020-Feb-23 03:26 027 2 gusting 6 12.8
2020-Feb-23 03:21 003 1 gusting 8 12.8
2020-Feb-23 03:16 023 2 gusting 6 13.3
2020-Feb-23 03:11 022 2 gusting 6 13.3
2020-Feb-23 03:06 018 2 gusting 6 13.3
2020-Feb-23 03:01 001 2 gusting 10 13.3
2020-Feb-23 02:56 340 2 gusting 7 13.3
2020-Feb-23 02:51 283 2 gusting 8 13.3
2020-Feb-23 02:46 048 2 gusting 7 13.3
2020-Feb-23 02:41 036 2 gusting 6 13.9
2020-Feb-23 02:36 035 2 gusting 6 13.9
2020-Feb-23 02:31 026 1 gusting 6 13.9
2020-Feb-23 02:26 041 2 gusting 5 13.9
2020-Feb-23 02:21 021 2 gusting 6 13.9
2020-Feb-23 02:16 345 2 gusting 8 13.9
2020-Feb-23 02:11 013 2 gusting 6 14.4
2020-Feb-23 02:06 006 2 gusting 7 14.4
2020-Feb-23 02:01 352 2 gusting 4 14.4
2020-Feb-23 01:56 346 3 gusting 6 14.4
2020-Feb-23 01:51 14.4
2020-Feb-23 01:46 003 4 gusting 8 14.4
2020-Feb-23 01:41 007 4 gusting 15 14.4
2020-Feb-23 01:36 337 4 gusting 12 15.0
2020-Feb-23 01:31 355 4 gusting 6 15.0
2020-Feb-23 01:26 050 4 gusting 7 15.0
2020-Feb-23 01:21 017 4 gusting 11 15.0
2020-Feb-23 01:11 020 4 gusting 10 15.6
2020-Feb-23 01:01 028 2 gusting 6 15.6
2020-Feb-23 00:56 008 2 gusting 6 15.6
2020-Feb-23 00:51 346 4 gusting 5 15.6
2020-Feb-23 00:46 008 3 gusting 10 15.6
2020-Feb-23 00:41 339 2 gusting 12 16.1
2020-Feb-23 00:36 324 3 gusting 6 16.1
2020-Feb-23 00:31 018 4 gusting 8 16.1
2020-Feb-23 00:26 011 4 gusting 11 16.1
2020-Feb-23 00:21 018 4 gusting 7 16.1
2020-Feb-23 00:16 003 4 gusting 7 16.7
2020-Feb-23 00:11 006 4 gusting 7 16.7
2020-Feb-23 00:06 029 4 gusting 13 16.7
2020-Feb-22 23:56 342 3 gusting 8 17.2
2020-Feb-22 23:51 012 2 gusting 13 17.2
2020-Feb-22 23:46 344 3 gusting 8 17.2
2020-Feb-22 23:41 022 5 gusting 6 17.8
2020-Feb-22 23:36 067 4 gusting 11 17.8
2020-Feb-22 23:31 354 4 gusting 13 17.8
2020-Feb-22 23:26 323 4 gusting 7 18.3
2020-Feb-22 23:21 326 4 gusting 7 18.3
2020-Feb-22 23:16 356 4 gusting 7 18.3
2020-Feb-22 23:11 292 4 gusting 10 18.9
2020-Feb-22 23:06 018 4 gusting 10 18.9
2020-Feb-22 23:01 017 4 gusting 10 18.9
2020-Feb-22 22:56 009 4 gusting 10 19.4
2020-Feb-22 22:51 341 4 gusting 8 19.4
2020-Feb-22 22:46 334 3 gusting 10 19.4
2020-Feb-22 22:41 005 2 gusting 12 19.4
2020-Feb-22 22:36 332 3 gusting 6 20.0
2020-Feb-22 22:31 355 4 gusting 6 20.0
2020-Feb-22 22:26 334 4 gusting 6 20.0
2020-Feb-22 22:21 051 4 gusting 10 20.6
2020-Feb-22 22:16 334 3 gusting 7 21.1
2020-Feb-22 22:11 333 2 gusting 10 21.7
2020-Feb-22 22:06 022 2 gusting 6 21.7
2020-Feb-22 22:01 349 2 gusting 6 21.7
2020-Feb-22 21:56 345 2 gusting 6 21.1
2020-Feb-22 21:51 083 4 gusting 8 21.1
2020-Feb-22 21:46 027 4 gusting 11 21.1
2020-Feb-22 21:41 052 5 gusting 6 21.1
2020-Feb-22 21:36 279 5 gusting 8 21.1
2020-Feb-22 21:31 316 4 gusting 12 21.1
2020-Feb-22 21:26 337 4 gusting 8 21.1
2020-Feb-22 21:21 299 4 gusting 7 21.1
2020-Feb-22 21:16 335 4 gusting 8 21.1
2020-Feb-22 21:11 319 4 gusting 8 21.1
2020-Feb-22 21:06 013 3 gusting 7 21.1
2020-Feb-22 21:01 353 1 gusting 7 21.1
2020-Feb-22 20:56 094 2 gusting 4 21.1
2020-Feb-22 20:51 350 2 gusting 7 21.1
2020-Feb-22 20:46 055 2 gusting 8 21.1
2020-Feb-22 20:41 321 2 gusting 7 21.1
2020-Feb-22 20:36 033 2 gusting 6 21.1
2020-Feb-22 20:31 338 4 gusting 6 21.1
2020-Feb-22 20:26 018 4 gusting 6 20.6
2020-Feb-22 20:21 082 4 gusting 6 20.6
2020-Feb-22 20:16 320 4 gusting 6 20.6
2020-Feb-22 20:11 342 4 gusting 7 20.6
2020-Feb-22 20:06 342 4 gusting 8 20.6
2020-Feb-22 20:01 012 4 gusting 6 20.6
2020-Feb-22 19:56 023 4 gusting 6 20.6
2020-Feb-22 19:51 329 4 gusting 10 20.6
2020-Feb-22 19:46 346 4 gusting 7 20.6
2020-Feb-22 19:41 010 4 gusting 11 20.6
2020-Feb-22 19:36 309 4 gusting 6 20.6
2020-Feb-22 19:31 023 4 gusting 6 20.0
2020-Feb-22 19:26 002 4 gusting 6 20.0
2020-Feb-22 19:21 071 5 gusting 7 20.6
2020-Feb-22 19:16 330 4 gusting 7 20.0
2020-Feb-22 19:11 311 4 gusting 10 20.0
2020-Feb-22 19:06 333 4 gusting 13 20.6
2020-Feb-22 19:01 009 4 gusting 6 20.0
2020-Feb-22 18:56 340 4 gusting 6 20.0
2020-Feb-22 18:51 053 4 gusting 6 20.0
2020-Feb-22 18:46 029 4 gusting 11 19.4
2020-Feb-22 18:41 051 4 gusting 8 19.4
2020-Feb-22 18:36 322 4 gusting 12 19.4
2020-Feb-22 18:31 351 4 gusting 8 19.4
2020-Feb-22 18:26 353 4 gusting 12 19.4
2020-Feb-22 18:21 321 4 gusting 10 19.4
2020-Feb-22 18:16 343 4 gusting 7 18.9
2020-Feb-22 18:11 039 4 gusting 11 18.9
2020-Feb-22 18:06 301 4 gusting 8 18.9
2020-Feb-22 18:01 019 5 gusting 11 18.3
2020-Feb-22 17:56 301 4 gusting 10 18.3
2020-Feb-22 17:51 316 1 gusting 10 18.9
2020-Feb-22 17:46 060 2 gusting 6 18.9
2020-Feb-22 17:41 318 2 gusting 5 18.3
2020-Feb-22 17:36 077 3 gusting 6 17.8
2020-Feb-22 17:31 064 4 gusting 7 17.8
2020-Feb-22 17:26 001 4 gusting 7 17.8
2020-Feb-22 17:21 349 4 gusting 11 17.8
2020-Feb-22 17:16 333 4 gusting 7 17.2
2020-Feb-22 17:11 083 4 gusting 8 17.2
2020-Feb-22 17:06 329 4 gusting 8 17.2
2020-Feb-22 17:01 318 4 gusting 8 16.7